TimeMST,TemperatureF,Dew PointF,Humidity,Sea Level PressureIn,VisibilityMPH,Wind Direction,Wind SpeedMPH,Gust SpeedMPH,PrecipitationIn,Events,Conditions,WindDirDegrees,DateUTC
12:15 AM,3.2,-4.0,72,30.24,10.0,ENE,4.6,-,N/A,,Clear,60,2013-02-17 07:15:00
12:35 AM,-0.4,-7.6,72,30.23,10.0,Calm,Calm,-,N/A,,Clear,0,2013-02-17 07:35:00
12:55 AM,1.4,-0.4,92,30.23,10.0,Calm,Calm,-,N/A,,Clear,0,2013-02-17 07:55:00
1:15 AM,3.2,-5.8,66,30.23,10.0,Calm,Calm,-,N/A,,Clear,0,2013-02-17 08:15:00
1:35 AM,1.4,1.4,100,30.22,10.0,Calm,Calm,-,N/A,,Clear,0,2013-02-17 08:35:00
1:55 AM,-0.4,-11.2,60,30.22,10.0,NE,3.5,-,N/A,,Clear,50,2013-02-17 08:55:00
2:35 AM,-0.4,-5.8,78,30.22,10.0,Calm,Calm,-,N/A,,Clear,0,2013-02-17 09:35:00
2:55 AM,-2.2,-7.6,78,30.21,10.0,Calm,Calm,-,N/A,,Clear,0,2013-02-17 09:55:00
3:15 AM,-0.4,-2.2,92,30.20,10.0,NE,3.5,-,N/A,,Clear,40,2013-02-17 10:15:00
3:35 AM,-5.8,-14.8,65,30.20,10.0,NE,4.6,-,N/A,,Clear,50,2013-02-17 10:35:00
3:55 AM,-4.0,-4.0,100,30.19,10.0,ENE,3.5,-,N/A,,Clear,70,2013-02-17 10:55:00
4:15 AM,-2.2,-9.4,71,30.18,10.0,Calm,Calm,-,N/A,,Clear,0,2013-02-17 11:15:00
4:35 AM,-2.2,-2.2,100,30.17,10.0,Calm,Calm,-,N/A,,Clear,0,2013-02-17 11:35:00
4:55 AM,-7.6,-18.4,59,30.17,10.0,Calm,Calm,-,N/A,,Clear,0,2013-02-17 11:55:00
5:15 AM,-5.8,-9.4,84,30.16,10.0,Calm,Calm,-,N/A,,Clear,0,2013-02-17 12:15:00
5:35 AM,-5.8,-5.8,100,30.16,10.0,Calm,Calm,-,N/A,,Clear,0,2013-02-17 12:35:00
5:55 AM,-5.8,-16.6,60,30.15,10.0,Calm,Calm,-,N/A,,Clear,0,2013-02-17 12:55:00
6:15 AM,-7.6,-7.6,100,30.15,10.0,Calm,Calm,-,N/A,,Clear,0,2013-02-17 13:15:00
6:35 AM,-5.8,-7.6,92,30.14,10.0,Calm,Calm,-,N/A,,Clear,0,2013-02-17 13:35:00
6:55 AM,-7.6,-16.6,65,30.14,10.0,Calm,Calm,-,N/A,,Clear,0,2013-02-17 13:55:00
7:15 AM,-5.8,-5.8,100,30.13,10.0,Calm,Calm,-,N/A,,Clear,0,2013-02-17 14:15:00
7:35 AM,-5.8,-16.6,60,30.13,10.0,Calm,Calm,-,N/A,,Clear,0,2013-02-17 14:35:00
7:55 AM,-5.8,-5.8,100,30.13,10.0,Calm,Calm,-,N/A,,Clear,0,2013-02-17 14:55:00
8:15 AM,-4.0,-11.2,71,30.13,10.0,Calm,Calm,-,N/A,,Clear,0,2013-02-17 15:15:00
8:35 AM,-5.8,-5.8,100,30.12,10.0,Calm,Calm,-,N/A,,Clear,0,2013-02-17 15:35:00
8:55 AM,-2.2,-9999,N/A,30.12,10.0,Calm,Calm,-,N/A,,Clear,0,2013-02-17 15:55:00
9:15 AM,-0.4,-0.4,100,30.10,10.0,Calm,Calm,-,N/A,,Clear,0,2013-02-17 16:15:00
9:35 AM,-0.4,-11.2,60,30.09,10.0,ENE,3.5,-,N/A,,Clear,70,2013-02-17 16:35:00
9:55 AM,1.4,1.4,100,30.08,10.0,Calm,Calm,-,N/A,,Clear,0,2013-02-17 16:55:00
10:15 AM,3.2,-5.8,66,30.07,10.0,Calm,Calm,-,N/A,,Clear,0,2013-02-17 17:15:00
10:35 AM,6.8,-0.4,72,30.05,10.0,Calm,Calm,-,N/A,,Clear,0,2013-02-17 17:35:00
10:55 AM,8.6,5.0,85,30.04,10.0,Calm,Calm,-,N/A,,Clear,0,2013-02-17 17:55:00
11:15 AM,10.4,-0.4,62,30.02,10.0,Calm,Calm,-,N/A,,Clear,0,2013-02-17 18:15:00
11:35 AM,12.2,6.8,79,30.00,10.0,Calm,Calm,-,N/A,,Clear,0,2013-02-17 18:35:00
12:15 PM,15.8,6.8,68,29.96,10.0,East,3.5,-,N/A,,Partly Cloudy,90,2013-02-17 19:15:00
12:35 PM,15.8,3.2,58,29.93,10.0,East,4.6,-,N/A,,Partly Cloudy,80,2013-02-17 19:35:00
12:55 PM,17.6,6.8,63,29.92,10.0,East,4.6,-,N/A,,Partly Cloudy,80,2013-02-17 19:55:00
1:35 PM,17.6,3.2,53,29.88,10.0,Calm,Calm,-,N/A,,Partly Cloudy,0,2013-02-17 20:35:00
1:55 PM,19.4,6.8,58,29.86,10.0,Calm,Calm,-,N/A,,Partly Cloudy,0,2013-02-17 20:55:00
2:15 PM,19.4,8.6,63,29.85,10.0,Calm,Calm,-,N/A,,Clear,0,2013-02-17 21:15:00
2:35 PM,19.4,5.0,54,29.83,10.0,SSE,3.5,-,N/A,,Clear,150,2013-02-17 21:35:00
2:55 PM,21.2,8.6,58,29.82,10.0,Calm,Calm,-,N/A,,Clear,0,2013-02-17 21:55:00
3:35 PM,21.2,6.8,54,29.80,10.0,Calm,Calm,-,N/A,,Clear,0,2013-02-17 22:35:00
3:55 PM,21.2,6.8,54,29.80,10.0,Calm,Calm,-,N/A,,Clear,0,2013-02-17 22:55:00
4:15 PM,23.0,6.8,50,29.79,10.0,North,4.6,-,N/A,,Clear,10,2013-02-17 23:15:00
4:35 PM,23.0,8.6,54,29.78,10.0,NNE,4.6,-,N/A,,Clear,20,2013-02-17 23:35:00
4:55 PM,24.8,6.8,46,29.78,10.0,NNE,3.5,-,N/A,,Clear,30,2013-02-17 23:55:00
5:15 PM,21.2,6.8,54,29.78,10.0,Calm,Calm,-,N/A,,Clear,0,2013-02-18 00:15:00
5:35 PM,21.2,8.6,58,29.78,10.0,Calm,Calm,-,N/A,,Clear,0,2013-02-18 00:35:00
5:55 PM,17.6,5.0,58,29.78,10.0,South,4.6,-,N/A,,Clear,170,2013-02-18 00:55:00
6:15 PM,15.8,6.8,68,29.78,10.0,Calm,Calm,-,N/A,,Clear,0,2013-02-18 01:15:00
6:35 PM,15.8,3.2,58,29.78,10.0,Calm,Calm,-,N/A,,Clear,0,2013-02-18 01:35:00
6:55 PM,12.2,1.4,62,29.78,10.0,ENE,5.8,-,N/A,,Clear,60,2013-02-18 01:55:00
7:15 PM,14.0,10.4,86,29.78,10.0,North,6.9,-,N/A,,Clear,360,2013-02-18 02:15:00
7:35 PM,14.0,-2.2,49,29.78,10.0,Calm,Calm,-,N/A,,Clear,0,2013-02-18 02:35:00
7:55 PM,8.6,-0.4,67,29.78,10.0,SE,4.6,-,N/A,,Mostly Cloudy,140,2013-02-18 02:55:00
8:15 PM,10.4,8.6,92,29.78,10.0,Calm,Calm,-,N/A,,Overcast,0,2013-02-18 03:15:00
8:35 PM,12.2,1.4,62,29.78,10.0,Calm,Calm,-,N/A,,Mostly Cloudy,0,2013-02-18 03:35:00
8:55 PM,14.0,6.8,73,29.79,10.0,ENE,8.1,-,N/A,,Mostly Cloudy,60,2013-02-18 03:55:00
9:15 PM,15.8,10.4,79,29.79,10.0,Calm,Calm,-,N/A,,Mostly Cloudy,0,2013-02-18 04:15:00
9:35 PM,15.8,3.2,58,29.80,10.0,Calm,Calm,-,N/A,,Overcast,0,2013-02-18 04:35:00
10:15 PM,19.4,12.2,74,29.79,10.0,Calm,Calm,-,N/A,,Partly Cloudy,0,2013-02-18 05:15:00
10:35 PM,17.6,10.4,73,29.79,10.0,ENE,5.8,-,N/A,,Clear,60,2013-02-18 05:35:00
10:55 PM,17.6,6.8,63,29.80,10.0,Calm,Calm,-,N/A,,Mostly Cloudy,0,2013-02-18 05:55:00
11:15 PM,17.6,6.8,63,29.80,10.0,East,4.6,-,N/A,,Mostly Cloudy,80,2013-02-18 06:15:00
11:35 PM,17.6,15.8,93,29.80,10.0,East,3.5,-,N/A,,Overcast,100,2013-02-18 06:35:00